Time,TemperatureF,DewpointF,PressureIn,WindDirection,WindDirectionDegrees,WindSpeedMPH,WindSpeedGustMPH,Humidity,HourlyPrecipIn,Conditions,Clouds,dailyrainin,SoftwareType,DateUTC
2013-04-29 00:01:00,69.0,62.9,30.04,East,100,0.0,2.0,81,0.00,,FEW250,0.00,VWS V14.01,2013-04-29 04:01:00,
2013-04-29 00:02:00,68.9,62.8,30.04,East,100,4.0,4.0,81,0.00,,FEW250,0.00,VWS V14.01,2013-04-29 04:02:00,
2013-04-29 00:07:00,68.7,62.6,30.04,ESE,120,0.0,4.0,81,0.00,,FEW250,0.00,VWS V14.01,2013-04-29 04:07:00,
2013-04-29 00:12:00,68.4,62.7,30.04,ESE,104,4.0,4.0,82,0.00,,FEW250,0.00,VWS V14.01,2013-04-29 04:12:00,
2013-04-29 00:17:00,68.5,62.8,30.04,East,101,4.0,8.0,82,0.00,,FEW250,0.00,VWS V14.01,2013-04-29 04:17:00,
2013-04-29 00:22:00,68.5,62.8,30.03,ESE,121,8.0,8.0,82,0.00,,FEW250,0.00,VWS V14.01,2013-04-29 04:22:00,
2013-04-29 00:27:00,68.3,62.9,30.03,ESE,111,6.0,16.0,83,0.00,,FEW250,0.00,VWS V14.01,2013-04-29 04:27:00,
2013-04-29 00:32:00,68.2,62.8,30.03,ESE,111,6.0,10.0,83,0.00,,FEW250,0.00,VWS V14.01,2013-04-29 04:32:00,
2013-04-29 00:37:00,68.4,63.4,30.03,ENE,77,6.0,14.0,84,0.00,,FEW250,0.00,VWS V14.01,2013-04-29 04:37:00,
2013-04-29 00:42:00,68.5,63.5,30.03,East,84,2.0,6.0,84,0.00,,FEW250,0.00,VWS V14.01,2013-04-29 04:42:00,
2013-04-29 00:48:00,68.4,63.4,30.03,East,101,6.0,6.0,84,0.00,,FEW250,0.00,VWS V14.01,2013-04-29 04:48:00,
2013-04-29 00:53:00,68.4,63.4,30.03,ENE,77,6.0,8.0,84,0.00,,FEW250,0.00,VWS V14.01,2013-04-29 04:53:00,
2013-04-29 00:58:00,68.4,63.4,30.04,ESE,118,2.0,4.0,84,0.00,,FEW250,0.00,VWS V14.01,2013-04-29 04:58:00,
2013-04-29 01:03:00,68.4,63.4,30.04,East,81,0.0,6.0,84,0.00,,CLR,0.00,VWS V14.01,2013-04-29 05:03:00,
2013-04-29 01:08:00,68.3,63.3,30.04,ESE,110,0.0,6.0,84,0.00,,CLR,0.00,VWS V14.01,2013-04-29 05:08:00,
2013-04-29 01:13:00,68.2,63.2,30.04,ENE,59,0.0,4.0,84,0.00,,CLR,0.00,VWS V14.01,2013-04-29 05:13:00,
2013-04-29 01:18:00,68.1,63.4,30.04,East,84,0.0,6.0,85,0.00,,CLR,0.00,VWS V14.01,2013-04-29 05:18:00,
2013-04-29 01:23:00,68.1,63.1,30.03,East,86,2.0,2.0,84,0.00,,CLR,0.00,VWS V14.01,2013-04-29 05:23:00,
2013-04-29 01:28:00,68.1,63.4,30.03,East,86,0.0,2.0,85,0.00,,CLR,0.00,VWS V14.01,2013-04-29 05:28:00,
2013-04-29 01:33:00,67.9,63.2,30.03,East,86,0.0,2.0,85,0.00,,CLR,0.00,VWS V14.01,2013-04-29 05:33:00,
2013-04-29 01:39:00,67.9,63.2,30.03,East,86,0.0,2.0,85,0.00,,CLR,0.00,VWS V14.01,2013-04-29 05:39:00,
2013-04-29 01:44:00,68.0,63.3,30.03,ESE,107,0.0,6.0,85,0.00,,CLR,0.00,VWS V14.01,2013-04-29 05:44:00,
2013-04-29 01:49:00,68.1,63.4,30.03,East,101,0.0,4.0,85,0.00,,CLR,0.00,VWS V14.01,2013-04-29 05:49:00,
2013-04-29 01:54:00,68.1,63.1,30.03,ESE,106,2.0,8.0,84,0.00,,CLR,0.00,VWS V14.01,2013-04-29 05:54:00,
2013-04-29 01:59:00,68.4,63.4,30.03,ESE,113,2.0,4.0,84,0.00,,CLR,0.00,VWS V14.01,2013-04-29 05:59:00,
2013-04-29 02:04:00,68.5,63.5,30.02,East,92,2.0,8.0,84,0.00,,CLR,0.00,VWS V14.01,2013-04-29 06:04:00,
2013-04-29 02:09:00,68.6,63.6,30.02,ESE,107,2.0,8.0,84,0.00,,CLR,0.00,VWS V14.01,2013-04-29 06:09:00,
2013-04-29 02:14:00,68.6,63.6,30.02,ESE,105,2.0,4.0,84,0.00,,CLR,0.00,VWS V14.01,2013-04-29 06:14:00,
2013-04-29 02:19:00,68.5,63.5,30.02,ESE,103,2.0,4.0,84,0.00,,CLR,0.00,VWS V14.01,2013-04-29 06:19:00,
2013-04-29 02:24:00,68.6,63.6,30.02,ESE,103,4.0,6.0,84,0.00,,CLR,0.00,VWS V14.01,2013-04-29 06:24:00,
2013-04-29 02:29:00,68.6,63.6,30.01,East,95,0.0,6.0,84,0.00,,CLR,0.00,VWS V14.01,2013-04-29 06:29:00,
2013-04-29 02:34:00,68.4,63.4,30.01,ESE,106,2.0,6.0,84,0.00,,CLR,0.00,VWS V14.01,2013-04-29 06:34:00,
2013-04-29 02:40:00,68.2,63.2,30.01,East,91,0.0,0.0,84,0.00,,CLR,0.00,VWS V14.01,2013-04-29 06:40:00,
2013-04-29 02:45:00,68.1,63.4,30.01,East,91,0.0,2.0,85,0.00,,CLR,0.00,VWS V14.01,2013-04-29 06:45:00,
2013-04-29 02:50:00,68.0,63.3,30.01,East,91,0.0,0.0,85,0.00,,CLR,0.00,VWS V14.01,2013-04-29 06:50:00,
2013-04-29 02:55:00,67.9,63.2,30.01,East,91,0.0,2.0,85,0.00,,CLR,0.00,VWS V14.01,2013-04-29 06:55:00,
2013-04-29 03:00:00,67.6,63.3,30.01,East,91,0.0,0.0,86,0.00,,FEW250,0.00,VWS V14.01,2013-04-29 07:00:00,
2013-04-29 03:05:00,67.5,63.2,30.01,East,91,2.0,4.0,86,0.00,,FEW250,0.00,VWS V14.01,2013-04-29 07:05:00,
2013-04-29 03:10:00,67.5,63.2,30.01,East,91,2.0,2.0,86,0.00,,FEW250,0.00,VWS V14.01,2013-04-29 07:10:00,
2013-04-29 03:15:00,67.5,63.2,30.01,East,92,2.0,2.0,86,0.00,,FEW250,0.00,VWS V14.01,2013-04-29 07:15:00,
2013-04-29 03:20:00,67.3,63.0,30.01,East,92,4.0,4.0,86,0.00,,FEW250,0.00,VWS V14.01,2013-04-29 07:20:00,
2013-04-29 03:25:00,67.1,63.1,30.00,ESE,105,2.0,4.0,87,0.00,,FEW250,0.00,VWS V14.01,2013-04-29 07:25:00,
2013-04-29 03:31:00,67.0,63.0,30.00,East,95,2.0,4.0,87,0.00,,FEW250,0.00,VWS V14.01,2013-04-29 07:31:00,
2013-04-29 03:36:00,67.2,63.2,30.00,ESE,105,2.0,2.0,87,0.00,,FEW250,0.00,VWS V14.01,2013-04-29 07:36:00,
2013-04-29 03:41:00,67.1,63.1,30.00,ESE,105,2.0,6.0,87,0.00,,FEW250,0.00,VWS V14.01,2013-04-29 07:41:00,
2013-04-29 03:46:00,67.0,63.0,30.00,ESE,114,2.0,2.0,87,0.00,,FEW250,0.00,VWS V14.01,2013-04-29 07:46:00,
2013-04-29 03:51:00,66.9,62.9,30.00,East,100,2.0,4.0,87,0.00,,FEW250,0.00,VWS V14.01,2013-04-29 07:51:00,
2013-04-29 03:56:00,66.9,63.2,30.00,ESE,103,2.0,4.0,88,0.00,,FEW250,0.00,VWS V14.01,2013-04-29 07:56:00,
2013-04-29 04:01:00,67.0,63.3,30.00,ESE,103,0.0,0.0,88,0.00,,FEW250,0.00,VWS V14.01,2013-04-29 08:01:00,
2013-04-29 04:06:00,66.8,63.1,30.00,ESE,107,2.0,4.0,88,0.00,,FEW250,0.00,VWS V14.01,2013-04-29 08:06:00,
2013-04-29 04:11:00,66.8,63.1,30.00,ESE,110,4.0,4.0,88,0.00,,FEW250,0.00,VWS V14.01,2013-04-29 08:11:00,
2013-04-29 04:16:00,66.7,63.0,30.00,ESE,110,2.0,4.0,88,0.00,,FEW250,0.00,VWS V14.01,2013-04-29 08:16:00,
2013-04-29 04:21:00,66.9,63.2,29.99,ESE,110,4.0,4.0,88,0.00,,FEW250,0.00,VWS V14.01,2013-04-29 08:21:00,
2013-04-29 04:27:00,66.9,63.2,29.99,East,86,4.0,6.0,88,0.00,,FEW250,0.00,VWS V14.01,2013-04-29 08:27:00,
2013-04-29 04:32:00,66.9,63.2,29.99,East,95,2.0,4.0,88,0.00,,FEW250,0.00,VWS V14.01,2013-04-29 08:32:00,
2013-04-29 04:37:00,66.9,63.2,29.98,East,83,2.0,6.0,88,0.00,,FEW250,0.00,VWS V14.01,2013-04-29 08:37:00,
2013-04-29 04:42:00,66.9,63.2,29.99,East,83,0.0,0.0,88,0.00,,FEW250,0.00,VWS V14.01,2013-04-29 08:42:00,
2013-04-29 04:47:00,66.9,63.6,29.99,East,83,0.0,2.0,89,0.00,,FEW250,0.00,VWS V14.01,2013-04-29 08:47:00,
2013-04-29 04:52:00,66.8,63.5,29.99,East,83,0.0,0.0,89,0.00,,FEW250,0.00,VWS V14.01,2013-04-29 08:52:00,
2013-04-29 04:57:00,66.7,63.4,29.99,East,83,0.0,0.0,89,0.00,,FEW250,0.00,VWS V14.01,2013-04-29 08:57:00,
2013-04-29 05:02:00,66.6,63.3,29.99,East,83,0.0,2.0,89,0.00,,FEW030,0.00,VWS V14.01,2013-04-29 09:02:00,
2013-04-29 05:08:00,66.5,63.2,30.00,East,83,0.0,2.0,89,0.00,,FEW030,0.00,VWS V14.01,2013-04-29 09:08:00,
2013-04-29 05:13:00,66.4,63.1,30.00,East,83,0.0,0.0,89,0.00,,FEW030,0.00,VWS V14.01,2013-04-29 09:13:00,
2013-04-29 05:18:00,66.3,63.3,29.99,East,83,0.0,0.0,90,0.00,,FEW030,0.00,VWS V14.01,2013-04-29 09:18:00,
2013-04-29 05:23:00,66.3,63.3,30.00,East,83,0.0,0.0,90,0.00,,FEW030,0.00,VWS V14.01,2013-04-29 09:23:00,
2013-04-29 05:28:00,66.2,63.2,30.00,East,83,0.0,0.0,90,0.00,,FEW030,0.00,VWS V14.01,2013-04-29 09:28:00,
2013-04-29 05:33:00,66.0,63.0,30.00,East,83,0.0,0.0,90,0.00,,FEW030,0.00,VWS V14.01,2013-04-29 09:33:00,
2013-04-29 05:38:00,65.9,62.9,30.00,East,83,0.0,0.0,90,0.00,,FEW030,0.00,VWS V14.01,2013-04-29 09:38:00,
2013-04-29 05:43:00,65.8,63.1,30.00,East,83,0.0,0.0,91,0.00,,FEW030,0.00,VWS V14.01,2013-04-29 09:43:00,
2013-04-29 05:48:00,65.6,62.9,30.01,East,83,0.0,0.0,91,0.00,,FEW030,0.00,VWS V14.01,2013-04-29 09:48:00,
2013-04-29 05:53:00,65.4,62.7,30.01,East,83,0.0,0.0,91,0.00,,FEW030,0.00,VWS V14.01,2013-04-29 09:53:00,
2013-04-29 05:59:00,65.3,62.6,30.01,East,83,0.0,0.0,91,0.00,,FEW030,0.00,VWS V14.01,2013-04-29 09:59:00,
2013-04-29 06:04:00,65.1,62.7,30.01,East,83,0.0,0.0,92,0.00,,SCT250,0.00,VWS V14.01,2013-04-29 10:04:00,
2013-04-29 06:09:00,65.0,62.6,30.01,East,83,0.0,0.0,92,0.00,,SCT250,0.00,VWS V14.01,2013-04-29 10:09:00,
2013-04-29 06:14:00,64.9,62.5,30.01,East,83,0.0,0.0,92,0.00,,SCT250,0.00,VWS V14.01,2013-04-29 10:14:00,
2013-04-29 06:19:00,64.7,62.6,30.01,East,83,0.0,0.0,93,0.00,,SCT250,0.00,VWS V14.01,2013-04-29 10:19:00,
2013-04-29 06:24:00,64.6,62.5,30.01,East,83,0.0,0.0,93,0.00,,SCT250,0.00,VWS V14.01,2013-04-29 10:24:00,
2013-04-29 06:29:00,64.5,62.4,30.01,East,83,0.0,0.0,93,0.00,,SCT250,0.00,VWS V14.01,2013-04-29 10:29:00,
2013-04-29 06:34:00,64.4,62.3,30.02,East,83,0.0,0.0,93,0.00,,SCT250,0.00,VWS V14.01,2013-04-29 10:34:00,
2013-04-29 06:39:00,64.4,62.6,30.02,East,83,0.0,0.0,94,0.00,,SCT250,0.00,VWS V14.01,2013-04-29 10:39:00,
2013-04-29 06:44:00,64.4,62.6,30.02,East,83,0.0,0.0,94,0.00,,SCT250,0.00,VWS V14.01,2013-04-29 10:44:00,
2013-04-29 06:50:00,64.4,62.6,30.02,East,83,0.0,0.0,94,0.00,,SCT250,0.00,VWS V14.01,2013-04-29 10:50:00,
2013-04-29 06:55:00,64.4,62.6,30.02,East,83,0.0,0.0,94,0.00,,SCT250,0.00,VWS V14.01,2013-04-29 10:55:00,
2013-04-29 07:00:00,64.3,62.8,30.02,East,83,0.0,0.0,95,0.00,,SCT250,0.00,VWS V14.01,2013-04-29 11:00:00,
2013-04-29 07:05:00,64.4,62.9,30.02,East,83,0.0,0.0,95,0.00,,SCT250,0.00,VWS V14.01,2013-04-29 11:05:00,
2013-04-29 07:10:00,64.4,62.9,30.02,East,83,0.0,0.0,95,0.00,,SCT250,0.00,VWS V14.01,2013-04-29 11:10:00,
2013-04-29 07:15:00,64.5,63.0,30.02,East,83,0.0,0.0,95,0.00,,SCT250,0.00,VWS V14.01,2013-04-29 11:15:00,
2013-04-29 07:20:00,64.7,63.2,30.03,East,83,0.0,0.0,95,0.00,,SCT250,0.00,VWS V14.01,2013-04-29 11:20:00,
2013-04-29 07:25:00,64.8,63.3,30.03,East,83,0.0,0.0,95,0.00,,SCT250,0.00,VWS V14.01,2013-04-29 11:25:00,
2013-04-29 07:30:00,65.1,63.9,30.03,East,83,0.0,0.0,96,0.00,,SCT250,0.00,VWS V14.01,2013-04-29 11:30:00,
2013-04-29 07:36:00,65.4,64.2,30.03,East,83,0.0,0.0,96,0.00,,SCT250,0.00,VWS V14.01,2013-04-29 11:36:00,
2013-04-29 07:41:00,65.8,64.6,30.03,East,83,0.0,0.0,96,0.00,,SCT250,0.00,VWS V14.01,2013-04-29 11:41:00,
2013-04-29 07:46:00,66.1,64.9,30.04,East,83,0.0,0.0,96,0.00,,SCT250,0.00,VWS V14.01,2013-04-29 11:46:00,
2013-04-29 07:51:00,66.4,64.9,30.03,East,83,0.0,0.0,95,0.00,,SCT250,0.00,VWS V14.01,2013-04-29 11:51:00,
2013-04-29 07:56:00,67.0,65.5,30.03,East,86,2.0,4.0,95,0.00,,SCT250,0.00,VWS V14.01,2013-04-29 11:56:00,
2013-04-29 08:01:00,67.5,65.7,30.03,East,101,0.0,0.0,94,0.00,,BKN250,0.00,VWS V14.01,2013-04-29 12:01:00,
2013-04-29 08:06:00,68.1,65.7,30.03,East,101,2.0,4.0,92,0.00,,BKN250,0.00,VWS V14.01,2013-04-29 12:06:00,
2013-04-29 08:11:00,68.5,65.8,30.04,East,101,0.0,0.0,91,0.00,,BKN250,0.00,VWS V14.01,2013-04-29 12:11:00,
2013-04-29 08:16:00,68.9,66.2,30.03,East,101,0.0,0.0,91,0.00,,BKN250,0.00,VWS V14.01,2013-04-29 12:16:00,
2013-04-29 08:22:00,69.3,66.6,30.03,East,101,0.0,0.0,91,0.00,,BKN250,0.00,VWS V14.01,2013-04-29 12:22:00,
2013-04-29 08:27:00,69.8,66.4,30.03,ESE,102,4.0,6.0,89,0.00,,BKN250,0.00,VWS V14.01,2013-04-29 12:27:00,
2013-04-29 08:32:00,70.4,66.7,30.03,ESE,102,2.0,6.0,88,0.00,,BKN250,0.00,VWS V14.01,2013-04-29 12:32:00,
2013-04-29 08:37:00,71.2,67.5,30.03,ESE,103,0.0,2.0,88,0.00,,BKN250,0.00,VWS V14.01,2013-04-29 12:37:00,
2013-04-29 08:42:00,71.6,67.2,30.04,ESE,103,2.0,2.0,86,0.00,,BKN250,0.00,VWS V14.01,2013-04-29 12:42:00,
2013-04-29 08:47:00,72.1,67.3,30.04,ESE,103,0.0,4.0,85,0.00,,BKN250,0.00,VWS V14.01,2013-04-29 12:47:00,
2013-04-29 08:52:00,72.8,68.0,30.03,SE,124,0.0,4.0,85,0.00,,BKN250,0.00,VWS V14.01,2013-04-29 12:52:00,
2013-04-29 08:57:00,73.8,68.0,30.03,East,91,2.0,8.0,82,0.00,,BKN250,0.00,VWS V14.01,2013-04-29 12:57:00,
2013-04-29 09:02:00,74.7,68.5,30.03,SE,143,4.0,8.0,81,0.00,,BKN250,0.00,VWS V14.01,2013-04-29 13:02:00,
2013-04-29 09:08:00,75.4,68.4,30.03,SSE,159,4.0,6.0,79,0.00,,BKN250,0.00,VWS V14.01,2013-04-29 13:08:00,
2013-04-29 09:13:00,76.0,68.3,30.03,SE,135,0.0,10.0,77,0.00,,BKN250,0.00,VWS V14.01,2013-04-29 13:13:00,
2013-04-29 09:18:00,76.6,68.5,30.03,SE,140,2.0,4.0,76,0.00,,BKN250,0.00,VWS V14.01,2013-04-29 13:18:00,
2013-04-29 09:23:00,77.0,68.5,30.03,East,96,14.0,14.0,75,0.00,,BKN250,0.00,VWS V14.01,2013-04-29 13:23:00,
2013-04-29 09:28:00,77.4,68.1,30.03,East,99,2.0,8.0,73,0.00,,BKN250,0.00,VWS V14.01,2013-04-29 13:28:00,
2013-04-29 09:33:00,77.7,68.0,30.03,ESE,102,4.0,14.0,72,0.00,,BKN250,0.00,VWS V14.01,2013-04-29 13:33:00,
2013-04-29 09:38:00,78.1,67.5,30.03,SSE,150,4.0,8.0,70,0.00,,BKN250,0.00,VWS V14.01,2013-04-29 13:38:00,
2013-04-29 09:43:00,78.5,68.3,30.03,ESE,119,4.0,8.0,71,0.00,,BKN250,0.00,VWS V14.01,2013-04-29 13:43:00,
2013-04-29 09:48:00,78.8,67.8,30.03,ESE,108,4.0,8.0,69,0.00,,BKN250,0.00,VWS V14.01,2013-04-29 13:48:00,
2013-04-29 09:53:00,79.1,67.2,30.03,SE,130,4.0,16.0,67,0.00,,BKN250,0.00,VWS V14.01,2013-04-29 13:53:00,
2013-04-29 09:58:00,79.5,68.4,30.04,South,185,4.0,14.0,69,0.00,,BKN250,0.00,VWS V14.01,2013-04-29 13:58:00,
2013-04-29 10:04:00,80.1,66.8,30.04,East,95,6.0,14.0,64,0.00,,BKN250,0.00,VWS V14.01,2013-04-29 14:04:00,
2013-04-29 10:09:00,80.1,67.3,30.04,East,91,10.0,10.0,65,0.00,,BKN250,0.00,VWS V14.01,2013-04-29 14:09:00,
2013-04-29 10:14:00,80.0,67.2,30.04,SE,146,6.0,12.0,65,0.00,,BKN250,0.00,VWS V14.01,2013-04-29 14:14:00,
2013-04-29 10:19:00,79.6,66.4,30.03,ESE,102,10.0,12.0,64,0.00,,BKN250,0.00,VWS V14.01,2013-04-29 14:19:00,
2013-04-29 10:24:00,79.3,66.1,30.03,East,86,6.0,14.0,64,0.00,,BKN250,0.00,VWS V14.01,2013-04-29 14:24:00,
2013-04-29 10:29:00,79.4,65.7,30.03,SE,128,6.0,8.0,63,0.00,,BKN250,0.00,VWS V14.01,2013-04-29 14:29:00,
2013-04-29 10:34:00,80.3,67.0,30.03,SSE,149,6.0,10.0,64,0.00,,BKN250,0.00,VWS V14.01,2013-04-29 14:34:00,
2013-04-29 10:39:00,80.9,66.2,30.03,East,100,4.0,18.0,61,0.00,,BKN250,0.00,VWS V14.01,2013-04-29 14:39:00,
2013-04-29 10:44:00,81.1,66.9,30.03,ESE,121,8.0,16.0,62,0.00,,BKN250,0.00,VWS V14.01,2013-04-29 14:44:00,
2013-04-29 10:49:00,81.4,66.7,30.03,East,100,14.0,20.0,61,0.00,,BKN250,0.00,VWS V14.01,2013-04-29 14:49:00,
2013-04-29 10:55:00,81.7,66.5,30.03,East,96,10.0,10.0,60,0.00,,BKN250,0.00,VWS V14.01,2013-04-29 14:55:00,
2013-04-29 11:00:00,81.9,65.7,30.03,SE,130,4.0,6.0,58,0.00,,BKN250,0.00,VWS V14.01,2013-04-29 15:00:00,
2013-04-29 11:05:00,82.1,65.4,30.03,SW,217,4.0,4.0,57,0.00,,BKN250,0.00,VWS V14.01,2013-04-29 15:05:00,
2013-04-29 11:10:00,81.6,64.4,30.03,SW,230,4.0,6.0,56,0.00,,BKN250,0.00,VWS V14.01,2013-04-29 15:10:00,
2013-04-29 11:15:00,81.2,65.5,30.03,East,90,2.0,2.0,59,0.00,,BKN250,0.00,VWS V14.01,2013-04-29 15:15:00,
2013-04-29 11:20:00,81.6,63.9,30.03,ESE,118,2.0,8.0,55,0.00,,BKN250,0.00,VWS V14.01,2013-04-29 15:20:00,
2013-04-29 11:25:00,82.5,65.2,30.03,SSW,202,4.0,6.0,56,0.00,,BKN250,0.00,VWS V14.01,2013-04-29 15:25:00,
2013-04-29 11:30:00,83.1,64.8,30.03,ESE,111,2.0,6.0,54,0.00,,BKN250,0.00,VWS V14.01,2013-04-29 15:30:00,
2013-04-29 11:36:00,83.3,63.9,30.03,ENE,68,4.0,6.0,52,0.00,,BKN250,0.00,VWS V14.01,2013-04-29 15:36:00,
2013-04-29 11:41:00,83.2,63.2,30.03,SSE,150,4.0,4.0,51,0.00,,BKN250,0.00,VWS V14.01,2013-04-29 15:41:00,
2013-04-29 11:46:00,83.6,63.0,30.03,SSW,192,2.0,6.0,50,0.00,,BKN250,0.00,VWS V14.01,2013-04-29 15:46:00,
2013-04-29 11:51:00,84.0,62.8,30.03,SE,134,4.0,6.0,49,0.00,,BKN250,0.00,VWS V14.01,2013-04-29 15:51:00,
2013-04-29 11:56:00,84.3,62.5,30.03,East,89,2.0,10.0,48,0.00,,BKN250,0.00,VWS V14.01,2013-04-29 15:56:00,
2013-04-29 12:01:00,84.2,62.4,30.03,SSE,152,6.0,8.0,48,0.00,,BKN250,0.00,VWS V14.01,2013-04-29 16:01:00,
2013-04-29 12:06:00,83.5,62.3,30.03,SSE,150,6.0,10.0,49,0.00,,BKN250,0.00,VWS V14.01,2013-04-29 16:06:00,
2013-04-29 12:11:00,83.4,63.4,30.03,ESE,118,2.0,14.0,51,0.00,,BKN250,0.00,VWS V14.01,2013-04-29 16:11:00,
2013-04-29 12:17:00,83.8,63.2,30.03,SSE,152,2.0,6.0,50,0.00,,BKN250,0.00,VWS V14.01,2013-04-29 16:17:00,
2013-04-29 12:22:00,83.9,63.8,30.02,East,92,6.0,6.0,51,0.00,,BKN250,0.00,VWS V14.01,2013-04-29 16:22:00,
2013-04-29 12:27:00,83.8,63.8,30.03,East,95,2.0,14.0,51,0.00,,BKN250,0.00,VWS V14.01,2013-04-29 16:27:00,
2013-04-29 12:32:00,83.5,64.0,30.02,ESE,103,2.0,4.0,52,0.00,,BKN250,0.00,VWS V14.01,2013-04-29 16:32:00,
2013-04-29 12:37:00,83.8,63.8,30.02,SE,129,0.0,10.0,51,0.00,,BKN250,0.00,VWS V14.01,2013-04-29 16:37:00,
2013-04-29 12:42:00,84.3,64.2,30.02,East,86,4.0,12.0,51,0.00,,BKN250,0.00,VWS V14.01,2013-04-29 16:42:00,
2013-04-29 12:47:00,84.1,64.0,30.02,South,178,2.0,6.0,51,0.00,,BKN250,0.00,VWS V14.01,2013-04-29 16:47:00,
2013-04-29 12:52:00,84.1,62.3,30.02,ESE,109,2.0,6.0,48,0.00,,BKN250,0.00,VWS V14.01,2013-04-29 16:52:00,
2013-04-29 12:57:00,84.0,63.4,30.02,WSW,240,0.0,10.0,50,0.00,,BKN250,0.00,VWS V14.01,2013-04-29 16:57:00,
2013-04-29 13:02:00,84.5,63.3,30.01,SE,134,4.0,4.0,49,0.00,,OVC250,0.00,VWS V14.01,2013-04-29 17:02:00,
2013-04-29 13:08:00,85.0,63.1,30.01,SSE,156,4.0,8.0,48,0.00,,OVC250,0.00,VWS V14.01,2013-04-29 17:08:00,
2013-04-29 13:13:00,85.0,63.1,30.01,East,101,10.0,10.0,48,0.00,,OVC250,0.00,VWS V14.01,2013-04-29 17:13:00,
2013-04-29 13:18:00,84.8,63.5,30.01,SE,134,0.0,4.0,49,0.00,,OVC250,0.00,VWS V14.01,2013-04-29 17:18:00,
2013-04-29 13:23:00,84.7,61.7,30.01,ESE,118,4.0,12.0,46,0.00,,OVC250,0.00,VWS V14.01,2013-04-29 17:23:00,
2013-04-29 13:28:00,85.0,62.5,30.01,ESE,103,2.0,10.0,47,0.00,,OVC250,0.00,VWS V14.01,2013-04-29 17:28:00,
2013-04-29 13:33:00,84.8,63.0,30.01,SSE,153,4.0,8.0,48,0.00,,OVC250,0.00,VWS V14.01,2013-04-29 17:33:00,
2013-04-29 13:38:00,84.5,63.3,30.01,SE,146,4.0,6.0,49,0.00,,OVC250,0.00,VWS V14.01,2013-04-29 17:38:00,
2013-04-29 13:43:00,84.5,62.7,30.00,NW,308,4.0,16.0,48,0.00,,OVC250,0.00,VWS V14.01,2013-04-29 17:43:00,
2013-04-29 13:48:00,84.5,63.8,30.00,West,280,2.0,10.0,50,0.00,,OVC250,0.00,VWS V14.01,2013-04-29 17:48:00,
2013-04-29 13:53:00,84.4,64.9,30.00,West,259,0.0,6.0,52,0.00,,OVC250,0.00,VWS V14.01,2013-04-29 17:53:00,
2013-04-29 13:59:00,84.6,63.3,29.99,East,88,2.0,4.0,49,0.00,,OVC250,0.00,VWS V14.01,2013-04-29 17:59:00,
2013-04-29 14:04:00,85.0,64.9,29.99,East,89,6.0,10.0,51,0.00,,OVC230,0.00,VWS V14.01,2013-04-29 18:04:00,
2013-04-29 14:09:00,85.5,65.3,29.99,East,88,14.0,14.0,51,0.00,,OVC230,0.00,VWS V14.01,2013-04-29 18:09:00,
2013-04-29 14:14:00,85.8,65.0,29.99,SE,124,4.0,4.0,50,0.00,,OVC230,0.00,VWS V14.01,2013-04-29 18:14:00,
2013-04-29 14:19:00,85.9,64.0,29.99,SW,236,2.0,8.0,48,0.00,,OVC230,0.00,VWS V14.01,2013-04-29 18:19:00,
2013-04-29 14:24:00,86.4,63.2,29.98,SW,224,2.0,4.0,46,0.00,,OVC230,0.00,VWS V14.01,2013-04-29 18:24:00,
2013-04-29 14:29:00,86.2,64.2,29.98,SSW,200,0.0,8.0,48,0.00,,OVC230,0.00,VWS V14.01,2013-04-29 18:29:00,
2013-04-29 14:34:00,86.0,63.4,29.98,WNW,290,0.0,10.0,47,0.00,,OVC230,0.00,VWS V14.01,2013-04-29 18:34:00,
2013-04-29 14:39:00,86.4,62.6,29.98,SE,126,2.0,8.0,45,0.00,,OVC230,0.00,VWS V14.01,2013-04-29 18:39:00,
2013-04-29 14:44:00,86.6,62.1,29.97,West,264,0.0,6.0,44,0.00,,OVC230,0.00,VWS V14.01,2013-04-29 18:44:00,
2013-04-29 14:49:00,86.6,62.1,29.97,SW,217,4.0,6.0,44,0.00,,OVC230,0.00,VWS V14.01,2013-04-29 18:49:00,
2013-04-29 14:54:00,86.3,63.1,29.97,WNW,292,0.0,0.0,46,0.00,,OVC230,0.00,VWS V14.01,2013-04-29 18:54:00,
2013-04-29 15:00:00,85.8,62.0,29.96,South,186,2.0,2.0,45,0.00,,OVC230,0.00,VWS V14.01,2013-04-29 19:00:00,
2013-04-29 15:05:00,85.4,64.1,29.96,WSW,251,6.0,6.0,49,0.00,,BKN220,0.00,VWS V14.01,2013-04-29 19:05:00,
2013-04-29 15:10:00,85.1,63.8,29.96,ESE,116,2.0,2.0,49,0.00,,BKN220,0.00,VWS V14.01,2013-04-29 19:10:00,
2013-04-29 15:15:00,85.3,63.4,29.96,East,96,4.0,6.0,48,0.00,,BKN220,0.00,VWS V14.01,2013-04-29 19:15:00,
2013-04-29 15:20:00,85.2,63.9,29.95,SE,144,2.0,4.0,49,0.00,,BKN220,0.00,VWS V14.01,2013-04-29 19:20:00,
2013-04-29 15:25:00,85.0,63.7,29.95,SSE,159,4.0,8.0,49,0.00,,BKN220,0.00,VWS V14.01,2013-04-29 19:25:00,
2013-04-29 15:30:00,85.0,64.3,29.95,SE,137,0.0,2.0,50,0.00,,BKN220,0.00,VWS V14.01,2013-04-29 19:30:00,
2013-04-29 15:35:00,85.0,64.3,29.94,SE,140,6.0,6.0,50,0.00,,BKN220,0.00,VWS V14.01,2013-04-29 19:35:00,
2013-04-29 15:40:00,85.0,64.3,29.94,SE,146,4.0,4.0,50,0.00,,BKN220,0.00,VWS V14.01,2013-04-29 19:40:00,
2013-04-29 15:45:00,85.1,63.8,29.94,SE,132,8.0,10.0,49,0.00,,BKN220,0.00,VWS V14.01,2013-04-29 19:45:00,
2013-04-29 15:50:00,85.2,64.5,29.94,SSE,160,2.0,10.0,50,0.00,,BKN220,0.00,VWS V14.01,2013-04-29 19:50:00,
2013-04-29 15:55:00,85.2,64.5,29.93,East,99,0.0,4.0,50,0.00,,BKN220,0.00,VWS V14.01,2013-04-29 19:55:00,
2013-04-29 16:01:00,85.3,65.1,29.93,East,99,0.0,0.0,51,0.00,,BKN250,0.00,VWS V14.01,2013-04-29 20:01:00,
2013-04-29 16:06:00,85.8,64.4,29.92,SE,137,0.0,6.0,49,0.00,,BKN250,0.00,VWS V14.01,2013-04-29 20:06:00,
2013-04-29 16:11:00,86.2,64.2,29.92,SE,140,2.0,2.0,48,0.00,,BKN250,0.00,VWS V14.01,2013-04-29 20:11:00,
2013-04-29 16:16:00,86.2,65.4,29.92,SE,139,0.0,2.0,50,0.00,,BKN250,0.00,VWS V14.01,2013-04-29 20:16:00,
2013-04-29 16:21:00,86.2,64.2,29.92,SSE,157,6.0,6.0,48,0.00,,BKN250,0.00,VWS V14.01,2013-04-29 20:21:00,
2013-04-29 16:26:00,85.9,64.5,29.92,NE,43,2.0,4.0,49,0.00,,BKN250,0.00,VWS V14.01,2013-04-29 20:26:00,
2013-04-29 16:31:00,85.8,64.4,29.92,SSE,149,4.0,8.0,49,0.00,,BKN250,0.00,VWS V14.01,2013-04-29 20:31:00,
2013-04-29 16:36:00,85.5,63.6,29.91,East,86,6.0,10.0,48,0.00,,BKN250,0.00,VWS V14.01,2013-04-29 20:36:00,
2013-04-29 16:42:00,85.2,63.3,29.91,East,95,6.0,10.0,48,0.00,,BKN250,0.00,VWS V14.01,2013-04-29 20:42:00,
2013-04-29 16:47:00,84.8,64.1,29.92,East,93,2.0,6.0,50,0.00,,BKN250,0.00,VWS V14.01,2013-04-29 20:47:00,
2013-04-29 16:52:00,85.0,65.4,29.92,East,90,2.0,4.0,52,0.00,,BKN250,0.00,VWS V14.01,2013-04-29 20:52:00,
2013-04-29 16:57:00,85.1,64.4,29.92,ESE,106,2.0,8.0,50,0.00,,BKN250,0.00,VWS V14.01,2013-04-29 20:57:00,
2013-04-29 17:02:00,85.2,65.6,29.91,ESE,106,4.0,4.0,52,0.00,,BKN240,0.00,VWS V14.01,2013-04-29 21:02:00,
2013-04-29 17:07:00,85.7,64.9,29.92,ESE,113,4.0,6.0,50,0.00,,BKN240,0.00,VWS V14.01,2013-04-29 21:07:00,
2013-04-29 17:12:00,85.6,64.8,29.92,ESE,106,2.0,8.0,50,0.00,,BKN240,0.00,VWS V14.01,2013-04-29 21:12:00,
2013-04-29 17:17:00,85.4,64.7,29.92,East,93,6.0,8.0,50,0.00,,BKN240,0.00,VWS V14.01,2013-04-29 21:17:00,
2013-04-29 17:22:00,85.0,64.3,29.92,ESE,107,2.0,6.0,50,0.00,,BKN240,0.00,VWS V14.01,2013-04-29 21:22:00,
2013-04-29 17:27:00,84.8,65.2,29.91,East,97,0.0,8.0,52,0.00,,BKN240,0.00,VWS V14.01,2013-04-29 21:27:00,
2013-04-29 17:33:00,84.9,64.8,29.91,ESE,105,4.0,10.0,51,0.00,,BKN240,0.00,VWS V14.01,2013-04-29 21:33:00,
2013-04-29 17:38:00,85.0,64.3,29.91,East,97,4.0,6.0,50,0.00,,BKN240,0.00,VWS V14.01,2013-04-29 21:38:00,
2013-04-29 17:43:00,85.1,64.4,29.91,ESE,122,0.0,4.0,50,0.00,,BKN240,0.00,VWS V14.01,2013-04-29 21:43:00,
2013-04-29 17:48:00,85.2,64.5,29.91,SE,143,0.0,6.0,50,0.00,,BKN240,0.00,VWS V14.01,2013-04-29 21:48:00,
2013-04-29 17:53:00,85.2,64.5,29.91,ESE,108,0.0,4.0,50,0.00,,BKN240,0.00,VWS V14.01,2013-04-29 21:53:00,
2013-04-29 17:58:00,85.4,64.7,29.91,SSE,158,0.0,2.0,50,0.00,,BKN240,0.00,VWS V14.01,2013-04-29 21:58:00,
2013-04-29 18:03:00,85.5,64.8,29.91,SSE,157,6.0,6.0,50,0.00,,BKN220,0.00,VWS V14.01,2013-04-29 22:03:00,
2013-04-29 18:08:00,85.4,64.1,29.91,SSE,152,2.0,6.0,49,0.00,,BKN220,0.00,VWS V14.01,2013-04-29 22:08:00,
2013-04-29 18:13:00,85.2,63.9,29.91,ESE,106,0.0,4.0,49,0.00,,BKN220,0.00,VWS V14.01,2013-04-29 22:13:00,
2013-04-29 18:19:00,84.9,63.6,29.91,East,94,4.0,10.0,49,0.00,,BKN220,0.00,VWS V14.01,2013-04-29 22:19:00,
2013-04-29 18:24:00,84.6,67.2,29.91,ESE,103,10.0,16.0,56,0.00,,BKN220,0.00,VWS V14.01,2013-04-29 22:24:00,
2013-04-29 18:29:00,84.1,69.7,29.91,ESE,105,6.0,14.0,62,0.00,,BKN220,0.00,VWS V14.01,2013-04-29 22:29:00,
2013-04-29 18:34:00,83.6,69.7,29.91,East,93,8.0,18.0,63,0.00,,BKN220,0.00,VWS V14.01,2013-04-29 22:34:00,
2013-04-29 18:39:00,82.9,69.9,29.92,ENE,72,10.0,12.0,65,0.00,,BKN220,0.00,VWS V14.01,2013-04-29 22:39:00,
2013-04-29 18:44:00,82.3,70.3,29.91,East,82,14.0,20.0,67,0.00,,BKN220,0.00,VWS V14.01,2013-04-29 22:44:00,
2013-04-29 18:49:00,81.7,70.1,29.91,ESE,119,6.0,18.0,68,0.00,,BKN220,0.00,VWS V14.01,2013-04-29 22:49:00,
2013-04-29 18:54:00,81.2,70.1,29.91,East,99,6.0,18.0,69,0.00,,BKN220,0.00,VWS V14.01,2013-04-29 22:54:00,
2013-04-29 18:59:00,80.7,69.6,29.92,ENE,72,12.0,16.0,69,0.00,,BKN220,0.00,VWS V14.01,2013-04-29 22:59:00,
2013-04-29 19:04:00,80.5,69.8,29.91,East,85,10.0,18.0,70,0.00,,OVC200,0.00,VWS V14.01,2013-04-29 23:04:00,
2013-04-29 19:09:00,80.1,69.4,29.91,ENE,78,4.0,16.0,70,0.00,,OVC200,0.00,VWS V14.01,2013-04-29 23:09:00,
2013-04-29 19:14:00,79.8,69.6,29.91,ESE,111,6.0,16.0,71,0.00,,OVC200,0.00,VWS V14.01,2013-04-29 23:14:00,
2013-04-29 19:19:00,79.5,69.7,29.91,NE,47,4.0,4.0,72,0.00,,,0.00,VWS V14.01,2013-04-29 23:19:00,
2013-04-29 19:25:00,78.9,70.7,29.91,ESE,113,4.0,6.0,76,0.01,,,0.01,VWS V14.01,2013-04-29 23:25:00,
2013-04-29 19:30:00,77.8,71.1,29.91,ESE,102,8.0,14.0,80,0.01,,,0.01,VWS V14.01,2013-04-29 23:30:00,
2013-04-29 19:35:00,77.0,71.1,29.91,East,84,0.0,0.0,82,0.01,,,0.01,VWS V14.01,2013-04-29 23:35:00,
2013-04-29 19:40:00,76.5,71.3,29.91,East,90,0.0,0.0,84,0.01,,,0.01,VWS V14.01,2013-04-29 23:40:00,
2013-04-29 19:45:00,76.0,70.8,29.91,East,99,0.0,0.0,84,0.01,,,0.01,VWS V14.01,2013-04-29 23:45:00,
2013-04-29 19:50:00,75.7,70.9,29.91,East,99,0.0,0.0,85,0.01,,,0.01,VWS V14.01,2013-04-29 23:50:00,
2013-04-29 19:55:00,75.6,71.5,29.91,East,99,0.0,0.0,87,0.01,,,0.01,VWS V14.01,2013-04-29 23:55:00,
2013-04-29 20:00:00,75.4,71.3,29.92,East,84,12.0,18.0,87,0.08,,,0.08,VWS V14.01,2013-04-30 00:00:00,
2013-04-29 20:06:00,74.5,71.1,29.92,SE,130,2.0,2.0,89,0.25,,BKN190,0.25,VWS V14.01,2013-04-30 00:06:00,
2013-04-29 20:11:00,73.9,70.8,29.93,East,93,6.0,6.0,90,0.29,,BKN190,0.29,VWS V14.01,2013-04-30 00:11:00,
2013-04-29 20:16:00,73.1,69.3,29.93,South,182,2.0,12.0,88,0.31,,,0.31,VWS V14.01,2013-04-30 00:16:00,
2013-04-29 20:21:00,71.9,68.5,29.94,SE,143,0.0,6.0,89,0.36,,,0.36,VWS V14.01,2013-04-30 00:21:00,
2013-04-29 20:26:00,70.9,67.5,29.94,SSE,149,4.0,8.0,89,0.46,,,0.47,VWS V14.01,2013-04-30 00:26:00,
2013-04-29 20:31:00,70.2,67.4,29.93,East,84,2.0,10.0,91,0.47,,,0.48,VWS V14.01,2013-04-30 00:31:00,
2013-04-29 20:36:00,69.8,67.4,29.94,SSW,209,2.0,6.0,92,0.47,,,0.48,VWS V14.01,2013-04-30 00:36:00,
2013-04-29 20:41:00,69.6,67.2,29.96,WNW,283,4.0,6.0,92,0.48,,,0.49,VWS V14.01,2013-04-30 00:41:00,
2013-04-29 20:46:00,69.5,67.4,29.98,NW,319,6.0,6.0,93,0.54,,,0.55,VWS V14.01,2013-04-30 00:46:00,
2013-04-29 20:52:00,69.2,67.1,29.98,NW,318,0.0,2.0,93,0.70,,,0.71,VWS V14.01,2013-04-30 00:52:00,
2013-04-29 20:57:00,69.0,67.2,29.97,NW,319,0.0,2.0,94,0.95,,,0.96,VWS V14.01,2013-04-30 00:57:00,
2013-04-29 21:02:00,68.8,67.0,29.96,ENE,72,6.0,10.0,94,1.16,,OVC090,1.22,VWS V14.01,2013-04-30 01:02:00,
2013-04-29 21:07:00,68.6,66.8,29.96,ESE,110,0.0,6.0,94,1.08,,OVC090,1.30,VWS V14.01,2013-04-30 01:07:00,
2013-04-29 21:12:00,68.4,66.9,29.96,ESE,114,2.0,6.0,95,1.01,,OVC090,1.30,VWS V14.01,2013-04-30 01:12:00,
2013-04-29 21:17:00,68.3,66.8,29.96,ESE,113,2.0,6.0,95,1.01,,OVC090,1.32,VWS V14.01,2013-04-30 01:17:00,
2013-04-29 21:22:00,68.1,66.6,29.96,East,80,0.0,6.0,95,1.01,,OVC090,1.33,VWS V14.01,2013-04-30 01:22:00,
2013-04-29 21:27:00,68.0,66.5,29.96,East,93,2.0,10.0,95,0.87,,OVC090,1.33,VWS V14.01,2013-04-30 01:27:00,
2013-04-29 21:32:00,68.2,67.0,29.96,ENE,75,4.0,10.0,96,0.85,,-RA,1.33,VWS V14.01,2013-04-30 01:32:00,
2013-04-29 21:37:00,68.2,66.7,29.96,SE,135,6.0,6.0,95,0.85,,-RA,1.33,VWS V14.01,2013-04-30 01:37:00,
2013-04-29 21:43:00,68.1,66.9,29.97,ESE,120,2.0,4.0,96,0.84,,-RA,1.33,VWS V14.01,2013-04-30 01:43:00,
2013-04-29 21:48:00,68.1,66.6,29.97,East,86,0.0,4.0,95,0.83,,-RA,1.33,VWS V14.01,2013-04-30 01:48:00,
2013-04-29 21:53:00,68.0,66.5,29.96,East,88,0.0,2.0,95,0.70,,-RA,1.34,VWS V14.01,2013-04-30 01:53:00,
2013-04-29 21:58:00,68.0,66.8,29.96,East,99,0.0,6.0,96,0.49,,-RA,1.34,VWS V14.01,2013-04-30 01:58:00,
2013-04-29 22:03:00,68.0,66.8,29.97,ESE,111,4.0,4.0,96,0.25,,-RA,1.34,VWS V14.01,2013-04-30 02:03:00,
2013-04-29 22:08:00,68.0,66.5,29.97,ESE,109,4.0,6.0,95,0.05,,-RA,1.34,VWS V14.01,2013-04-30 02:08:00,
2013-04-29 22:13:00,67.9,66.4,29.97,East,101,0.0,2.0,95,0.04,,-RA,1.34,VWS V14.01,2013-04-30 02:13:00,
2013-04-29 22:18:00,67.9,66.7,29.97,East,101,0.0,4.0,96,0.04,,-RA,1.34,VWS V14.01,2013-04-30 02:18:00,
2013-04-29 22:23:00,67.9,66.7,29.98,East,101,2.0,2.0,96,0.01,,-RA,1.34,VWS V14.01,2013-04-30 02:23:00,
2013-04-29 22:28:00,67.9,66.7,29.98,East,101,0.0,2.0,96,0.01,,-RA,1.34,VWS V14.01,2013-04-30 02:28:00,
2013-04-29 22:33:00,68.0,66.8,29.98,ESE,103,0.0,4.0,96,0.01,,OVC055,1.34,VWS V14.01,2013-04-30 02:33:00,
2013-04-29 22:39:00,68.1,66.9,29.99,West,266,0.0,6.0,96,0.03,,OVC055,1.36,VWS V14.01,2013-04-30 02:39:00,
2013-04-29 22:44:00,68.2,67.0,29.99,West,266,2.0,2.0,96,0.13,,OVC055,1.46,VWS V14.01,2013-04-30 02:44:00,
2013-04-29 22:49:00,68.2,67.0,29.98,West,267,0.0,2.0,96,0.13,,OVC055,1.46,VWS V14.01,2013-04-30 02:49:00,
2013-04-29 22:54:00,68.2,67.0,29.98,West,267,0.0,4.0,96,0.14,,OVC055,1.47,VWS V14.01,2013-04-30 02:54:00,
2013-04-29 22:59:00,68.2,67.0,29.98,West,267,0.0,0.0,96,0.14,,OVC055,1.48,VWS V14.01,2013-04-30 02:59:00,
2013-04-29 23:04:00,68.3,67.4,29.97,West,267,0.0,0.0,97,0.15,,BKN110,1.49,VWS V14.01,2013-04-30 03:04:00,
2013-04-29 23:10:00,68.3,67.4,29.97,West,267,0.0,0.0,97,0.15,,BKN110,1.49,VWS V14.01,2013-04-30 03:10:00,
2013-04-29 23:15:00,68.2,67.0,29.97,West,267,0.0,0.0,96,0.15,,BKN110,1.49,VWS V14.01,2013-04-30 03:15:00,
2013-04-29 23:20:00,68.1,66.9,29.97,West,267,0.0,0.0,96,0.15,,BKN110,1.49,VWS V14.01,2013-04-30 03:20:00,
2013-04-29 23:25:00,67.9,66.7,29.97,SW,227,2.0,2.0,96,0.15,,BKN110,1.49,VWS V14.01,2013-04-30 03:25:00,
2013-04-29 23:30:00,67.7,66.5,29.98,SSW,192,0.0,0.0,96,0.15,,BKN110,1.49,VWS V14.01,2013-04-30 03:30:00,
2013-04-29 23:35:00,67.5,66.0,29.97,SSW,192,0.0,0.0,95,0.15,,BKN110,1.49,VWS V14.01,2013-04-30 03:35:00,
2013-04-29 23:40:00,67.3,66.1,29.97,SSW,192,0.0,0.0,96,0.11,,BKN110,1.49,VWS V14.01,2013-04-30 03:40:00,
2013-04-29 23:45:00,67.1,65.9,29.98,SSW,192,0.0,0.0,96,0.03,,BKN110,1.49,VWS V14.01,2013-04-30 03:45:00,
2013-04-29 23:50:00,67.0,65.8,29.98,SSW,192,0.0,0.0,96,0.03,,BKN110,1.49,VWS V14.01,2013-04-30 03:50:00,
2013-04-29 23:55:00,66.9,65.7,29.97,SSW,192,0.0,0.0,96,0.02,,BKN110,1.49,VWS V14.01,2013-04-30 03:55:00,